Weather Roundup
Issued by NWS Springfield, MO

Home | Current Version | Previous Version | Text Only | Print | Product List | Glossary On
Versions: 1 2 3 4 5 6 7 8 9 10 11 12 13 14 15 16 17 18 19 20 21 22 23 24 25 26 27 28 29 30 31 32 33 34 35 36 37 38 39 40 41 42 43 44 45 46 47 48 49 50
000
NZUS99 KSGF 311759
HRRSGF

HOURLY WEATHER
NATIONAL WEATHER SERVICE SPRINGFIELD MO
100 PM CDT FRI JUL 31 2015

......SGF CWA......

CITY           SKY/WX    TMP DP  RH WIND       PRES   REMARKS
SPRINGFIELD    SUNNY     87  56  34 W9        30.17F
6HR MIN TEMP:  70; 6HR MAX TEMP:  87;

JOPLIN         SUNNY     89  60  37 S10       30.16F
6HR MIN TEMP:  70; 6HR MAX TEMP:  89;

WEST PLAINS    SUNNY     88  58  36 VRB6      30.18S
6HR MIN TEMP:  65; 6HR MAX TEMP:  88;

ROLLA          SUNNY     87  58  37 W10       30.14F
6HR MIN TEMP:  63; 6HR MAX TEMP:  87;

OSAGE BEACH    SUNNY     88  61  40 W3        30.15F
BRANSON        MOSUNNY   86  59  39 CALM      30.19F

......SURROUNDING SGF CWA......

CITY           SKY/WX    TMP DP  RH WIND       PRES   REMARKS
CHANUTE        MOSUNNY   88  61  40 CALM      30.15F
PARSONS        PTSUNNY   86  73  65 S5        30.16F HX  93
COFFEYVILLE    SUNNY     87  70  56 VRB6      30.15F HX  92
EMPORIA        SUNNY     86  65  49 CALM      30.16F
SILOAM SPRINGS PTSUNNY   82  63  51 SW7       30.18F
HARRISON AR    SUNNY     87  61  41 SW7       30.18F
NEAR YELLVILLE SUNNY     88  63  42 N5        30.14S

......KANSAS AND MISSOURI......

CITY           SKY/WX    TMP DP  RH WIND       PRES   REMARKS
KANSAS CTY INT MOSUNNY   84  68  58 W5        30.14F
DOWNTOWN KC    SUNNY     88  64  44 VRB6      30.13F
COLUMBIA       SUNNY     87  65  47 W8        30.13F
SEDALIA        SUNNY     89  63  41 VRB6      30.15F HX  90
ST JOSEPH      SUNNY     86  73  65 W7        30.13F HX  93
ST LOUIS       MOSUNNY   91  65  41 N8        30.11F HX  93
SPIRIT OF STL  SUNNY     90  64  42 CALM      30.09F HX  91
KIRKSVILLE     SUNNY     85  62  46 W8        30.13F
WICHITA        PTSUNNY   88  67  49 CALM      30.16F HX  91
TOPEKA         SUNNY     87  68  52 N3        30.14F HX  90
OLATHE         SUNNY     85  63  47 SW6       30.14F

......TENNESSEE......

CITY           SKY/WX    TMP DP  RH WIND       PRES   REMARKS
MEMPHIS        MOSUNNY   91  64  40 E10G18    30.08F HX  92
NASHVILLE      MOSUNNY   88  61  40 NE6       30.07F

......ARKANSAS.......

CITY           SKY/WX    TMP DP  RH WIND       PRES   REMARKS
FAYETTEVILLE   PTSUNNY   84  67  56 SW7       30.18F
FT SMITH       PTSUNNY   87  63  44 E5        30.13F
LITTLE ROCK    MOSUNNY   91  61  36 E7        30.11F HX  91

......OKLAHOMA.......

CITY           SKY/WX    TMP DP  RH WIND       PRES   REMARKS
TULSA          PTSUNNY   87  71  58 SE9       30.13F HX  93
PONCA CITY     MOSUNNY   87  73  62 N6        30.14F HX  94
MCALESTER      PTSUNNY   88  65  46 NE3       30.14F HX  90
OKLAHOMA CITY  PTSUNNY   86  74  67 NE6       30.15F HX  94

......IOWA............

CITY           SKY/WX    TMP DP  RH WIND       PRES   REMARKS
DES MOINES     MOSUNNY   88  64  44 NW3       30.10F
QUAD CITIES    SUNNY     89  58  34 NW10G18   30.05F

......ILLINOIS........

CITY           SKY/WX    TMP DP  RH WIND       PRES   REMARKS
QUINCY         SUNNY     86  65  49 NW8       30.10F
CHICAGO        MOSUNNY   86  51  29 W18G30    29.97F



USA.gov is the U.S. government's official web portal to all federal, state and local government web resources and services.